Location: Antichan
(42.9728°N, 0.6667°E)
Time: 17:03:57
(UTC+00:00)

BREEZE-M DEB (TANK) - Pass Details

Date: 15 August 2020
Orbit: 320 x 16291 km, 49.4° (Epoch: 20 September)

Event Time Altitude Azimuth Distance (km) Brightness Sun altitude
Rises 19:56:55 0° 273° (W) 2,062 6.5 -10.4°
Reaches altitude 10° 19:58:30 10° 285° (WNW) 1,311 5.6 -10.7°
Maximum altitude 20:00:46 35° 356° (N) 771 3.4 -11.0°
Drops below altitude 10° 20:05:16 10° 64° (ENE) 2,613 5.4 -11.7°
Sets 20:10:00 0° 72° (ENE) 4,870 6.8 -12.5°
